{"data":{"norad_id":64369,"intl_designator":"2025-126AB","name":"STARLINK-34444","alt_names":[],"object_type":"PAYLOAD","status":"ACTIVE","operator":null,"country":"US","launch_date":"2025-06-13","launch_site_code":"AFWTR","launch_vehicle":null,"mission":null,"orbit_class":"UNKNOWN","rcs_meters":null,"size_class":null,"mass_kg":null,"dimensions":null,"purposes":["comms"],"wikipedia_slug":null,"has_3d_model":false,"image_url":null,"decayed_at":null,"tle_current":{"epoch":"2026-05-24T21:31:20.237664Z","epoch_age_seconds":80003,"freshness":"FRESH","line1":"1 64369U 25126AB  26144.89676201  .00003297  00000+0  28391-3 0  9996","line2":"2 64369  70.0005 202.4379 0003747 267.5900  92.4830 14.98334729 52091","mean_motion":14.98334729,"eccentricity":0.0003747,"inclination_deg":70.0005,"raan_deg":202.4379,"arg_perigee_deg":267.59,"mean_anomaly_deg":92.483,"bstar":0.00028391,"rev_number":5209,"period_min":96.10669579561,"perigee_km":569.43703514385,"apogee_km":574.6454987371,"semimajor_km":6950.1782669405,"source":"CELESTRAK","updated_at":"2026-05-25T13:38:20.408136Z"}}}